Location: Drawsko Pomorskie
(53.5317°N, 15.8111°E)
Time: 23:59:18
(UTC+01:00)

Envisat - Pass Details

Date: 27 October 2019
Orbit: 764 x 766 km, 98.1° (Epoch: 22 November)

Event Time Altitude Azimuth Distance (km) Brightness Sun altitude
Rises 17:31:23 0° 158° (SSE) 3,224 6.1 -8.9°
Reaches altitude 10° 17:33:41 10° 156° (SSE) 2,302 5.3 -9.3°
Maximum altitude 17:38:45 76° 72° (ENE) 795 2.9 -10.0°
Drops below altitude 10° 17:43:51 10° 348° (NNW) 2,317 5.6 -10.8°
Sets 17:46:10 0° 347° (NNW) 3,248 6.3 -11.1°
